Regional Weather Roundup
Issued by NWS

Home | Current Version | Previous Version | Graphics & Text | Print | Product List | Glossary On
Versions: 1 2 3 4 5 6 7 8 9 10 11 12 13 14 15 16 17 18 19 20 21 22 23 24 25 26 27 28 29 30 31 32 33 34 35 36 37 38 39 40 41 42 43 44 45 46 47 48 49 50
523
ASUS45 KBOI 300110
RWRID

IDAHO REGIONAL WEATHER ROUNDUP
NATIONAL WEATHER SERVICE BOISE ID
700 PM MDT THU SEP 29 2016

NOTE: "FAIR" INDICATES FEW OR NO CLOUDS BELOW 12000 FEET
WITH NO SIGNIFICANT WEATHER AND/OR OBSTRUCTIONS TO VISIBILITY

IDZ012-014-300200-
SOUTHWEST IDAHO


CITY           SKY/WX    TMP DP  RH WIND       PRES   REMARKS
BOISE          PTCLDY    86  37  17 S7        29.94F
CALDWELL       PTCLDY    84  44  24 NE5       29.91F
MOUNTAIN HOME  PTCLDY    80  43  26 SE16      29.97F
$$

IDZ016-017-300200-
SOUTHCENTRAL IDAHO


CITY           SKY/WX    TMP DP  RH WIND       PRES   REMARKS
JEROME         PTCLDY    70  45  40 S9        30.09R
TWIN FALLS     MOCLDY    70  42  36 S15       30.09S
$$

IDZ019>023-300200-
SOUTHEAST IDAHO


CITY           SKY/WX    TMP DP  RH WIND       PRES   REMARKS
IDAHO FALLS    CLOUDY    67  47  48 SE12      30.18R
POCATELLO      MOCLDY    71  46  40 S12       30.14
REXBURG        LGT RAIN  64  46  52 SE15G21   30.18S
$$

IDZ006-010-011-018-031-032-300200-
CENTRAL IDAHO MOUNTAINS


CITY           SKY/WX    TMP DP  RH WIND       PRES   REMARKS
MCCALL         PTCLDY    72  39  30 SW7       30.08S
HAILEY         PTCLDY    64  50  59 S7        30.16S
STANLEY          N/A     68  34  28 S3        30.19S
SALMON         CLOUDY    72  41  33 SW8       30.09R
CHALLIS        LGT RAIN  62  47  57 N7        30.18F
$$

IDZ002-004-006-007-026-300200-
NORTHERN IDAHO


CITY           SKY/WX    TMP DP  RH WIND       PRES   REMARKS
LEWISTON       MOCLDY    80  43  26 NW9       29.87F
LOWELL           N/A     65  56  72 N3        29.87S
COEUR D`ALENE  PTCLDY    73  51  46 NW3       29.93F
MULLAN PASS    CLEAR     64  38  38 CALM      30.13S
$$




USA.gov is the U.S. government's official web portal to all federal, state and local government web resources and services.